View from above orbital plane
|
View from above satellite
|
Ground track
|
The orbit data is extracted from the following two-line orbital elements,
1 28095U 03054A 21055.08274448 0.00000000 00000-0 00000-0 0 09
2 28095 63.4186 107.2305 0428988 359.6008 0.3992 13.41399645 00
Epoch (UTC): | 24 February 2021 01:59:09 |
Eccentricity: | 0.0428988 |
inclination: | 63.4186° |
perigee height: | 783 km |
apogee height: | 1425 km |
right ascension of ascending node: | 107.2305° |
argument of perigee: | 359.6008° |
revolutions per day: | 13.41399645 |
mean anomaly at epoch: | 0.3992° |
orbit number at epoch: | 0 |
The dashed part of the orbit path shows where the satellite is in the earth's shadow,
|
|